[[{"header":{"parameterUnit":"m.s-1","parameterCategory":1,"la1":30.2991,"la2":30.254,"lo1":-89.0895,"lo2":-89.0444,"dy":0.0017,"dx":0.0017,"nx":28,"ny":28,"refTime":"2025-12-17T03:00:00:Z","depth":0,"parameterNumber":2,"parameterNumberName":"U-component_of_WINDS"},"data":[0,0,0,0,0,0,0,0,0,0,0,0,0,0,0,0,0,0,0,0,0,0,0,0,0,0,0,0,0,0,0,0,0,0,0,0,0,0,0,0,0,0,0,0,0,0,0,0,0,0,0,0,0,0,0,0,0,0,-2.9668,-2.9669,0,-2.9699,-2.9699,-2.9699,-2.9544,-2.9539,-2.9535,-2.953,-2.9567,-2.9572,-2.9577,0,0,0,0,0,0,0,0,0,0,0,0,0,-2.9482,-2.9486,-2.9668,-2.9669,-2.9669,-2.9698,-2.9699,-2.9699,-2.9544,-2.9539,-2.9533,-2.9528,-2.9565,-2.9571,-2.9577,0,0,0,0,0,0,0,0,0,0,0,0,0,-2.9543,-2.9488,-2.9668,-2.9595,-2.9589,-2.9698,-2.9699,-2.9699,-2.9546,-2.9539,-2.9532,-2.9526,-2.9563,-2.957,-2.9578,-2.9761,0,0,-2.9602,-2.9605,0,0,0,0,0,0,0,0,-2.954,-2.955,-2.9606,-2.96,-2.9594,-2.961,-2.9646,-2.972,-2.9547,-2.9562,-2.953,-2.9522,-2.9587,-2.9592,-2.9613,-2.9763,-2.9764,-2.9602,-2.9607,-2.961,-2.9613,0,0,0,0,0,0,0,-2.9536,-2.9548,-2.968,-2.9607,-2.9599,-2.9563,-2.9564,-2.966,-2.9612,-2.956,-2.9549,-2.9555,-2.9582,-2.9606,-2.9613,-2.9765,-2.9602,-2.9609,-2.9614,-2.9617,-3.0068,-3.0075,0,0,0,0,0,0,-2.954,-2.9545,-2.9679,-2.9681,-2.9549,-2.9572,-2.9573,-2.9612,-2.9611,-2.9604,-2.956,-2.9547,-2.9596,-2.9604,-2.9613,-2.9829,-2.961,-2.9618,-2.9622,-3.0061,-3.007,-3.0078,0,0,0,0,0,0,-2.9537,-2.9554,-2.9678,-2.961,-2.9623,-2.9582,-2.9627,-2.9616,-2.9639,-2.9611,-2.9602,-2.9593,-2.9591,-2.9602,-2.9725,-2.9828,-2.9621,-2.9628,-3.0052,-3.0064,-3.0074,-3.0262,0,0,0,0,0,0,-2.9532,-2.9553,-2.9621,-2.9613,-2.9627,-2.9789,-2.9633,-2.9621,-2.9652,-2.9635,-2.9639,-2.9633,-2.9587,-2.9715,-2.9733,-2.9835,-2.9634,-3.0043,-3.0057,-3.007,-3.0246,-3.0278,-3.0305,0,0,0,0,0,-2.9526,-2.9674,-2.9626,-2.9643,-2.9711,-2.9795,-2.9804,-2.9746,-2.9661,-2.973,-2.9712,-2.9633,-2.9813,-2.9729,-2.9748,-2.9854,-3.0036,-3.0053,-3.0069,-3.0233,-3.0272,-3.0304,0,0,0,0,0,0,-2.9697,-2.9671,-2.9618,-2.9766,-2.9784,-2.9769,-2.9854,-2.9788,-2.9831,-2.9814,-2.9742,-2.9744,-2.9881,-2.9879,-2.9785,-3.0032,-2.991,-2.9932,-3.0028,-3.0065,-3.0093,-3.0092,-2.9641,0,0,0,0,0,-2.9752,-2.982,-2.9794,-2.9929,-2.994,-2.9896,-2.993,-2.9884,-2.99,-2.9907,-2.9898,-2.9918,-2.9979,-3.0021,-3.0076,-3.0244,-3.0244,-3.0327,-3.0356,-3.038,-3.0401,-3.0492,-3.0529,-3.0132,-3.0132,-3.0131,0,0,-2.9866,-2.986,-2.9909,-2.9963,-2.9971,-3.0046,-2.9903,-2.9988,-3.0043,-2.992,-3.0036,-3.003,-3.0048,-3.0195,-3.026,-3.0198,-3.051,-3.0401,-3.0421,-3.0428,-3.0513,-3.055,-3.0584,-3.0143,-3.0141,-3.0139,0,0,-3.0113,-3.0115,-3.0227,-3.0238,-3.0252,-3.0222,-3.0249,-3.0244,-3.0235,-3.0349,-3.0259,-3.0325,-3.0431,-3.0448,-3.0471,-3.0725,-3.0655,-3.0745,-3.09,-3.0989,-3.1021,-3.1048,-3.1142,-3.1176,-3.0765,-3.0765,-3.0765,0,-3.0255,-3.0362,-3.0294,-3.0386,-3.0413,-3.0303,-3.0419,-3.0433,-3.0465,-3.0488,-3.0417,-3.055,-3.0554,-3.0705,-3.0767,-3.0788,-3.0819,-3.0746,-3.1021,-3.1048,-3.1073,-3.1161,-3.1197,-3.0776,-3.0775,-3.0774,-3.0773,0,-3.0536,-3.0612,-3.0702,-3.0734,-3.0772,-3.0875,-3.0825,-3.0871,-3.0822,-3.08,-3.0919,-3.092,-3.0974,-3.1005,-3.0958,-3.1151,-3.1112,-3.1033,-3.091,-3.1123,-3.1205,-3.1238,-3.0792,-3.0788,-3.0785,-3.0782,0,0,-3.0893,-3.0887,-3.0921,-3.0935,-3.0942,-3.1001,-3.1099,-3.115,-3.1193,-3.1219,-3.1302,-3.1394,-3.1321,-3.1347,-3.1301,-3.138,-3.1585,-3.1291,-3.129,-3.1348,-3.18,-3.1862,-3.1902,-3.1537,-3.1543,-3.1548,-3.1799,0,-3.1137,-3.1304,-3.1247,-3.1418,-3.1489,-3.1386,-3.1472,-3.1487,-3.1469,-3.1528,-3.1508,-3.1576,-3.1473,-3.1488,-3.1561,-3.1545,-3.1675,-3.1525,-3.1617,-3.1621,-3.1618,-3.1944,-3.201,-3.2247,-3.1831,-3.1836,-3.184,0,-3.1445,-3.1482,-3.166,-3.1656,-3.1684,-3.1762,-3.1805,-3.1862,-3.1878,-3.1859,-3.1889,-3.1826,-3.1925,-3.18,-3.1936,-3.1836,-3.1869,-3.1867,-3.1875,-3.1884,-3.1746,-3.1965,-3.2321,-3.2358,-3.1889,-3.1885,-3.1882,0,-3.1691,-3.1785,-3.1905,-3.1919,-3.1917,-3.1976,-3.1978,-3.1986,-3.2021,-3.2059,-3.2082,-3.2131,-3.216,-3.2201,-3.2154,-3.2067,-3.2299,-3.2169,-3.2289,-3.2291,-3.2345,-3.2343,-3.2715,-3.2363,-3.2362,-3.2361,-3.2361,0,-3.1972,-3.2086,-3.2015,-3.2089,-3.2214,-3.2147,-3.2274,-3.2264,-3.2273,-3.2345,-3.2258,-3.2328,-3.2261,-3.2325,-3.2289,-3.2409,-3.2422,-3.2412,-3.2402,-3.2422,-3.2424,-3.2445,-3.2429,-3.2371,-3.2369,-3.2367,-3.2365,0,-3.2269,-3.2226,-3.235,-3.2338,-3.2337,-3.2431,-3.2421,-3.249,-3.2464,-3.2557,-3.2575,-3.2537,-3.2608,-3.2565,-3.2637,-3.2613,-3.2771,-3.2737,-3.2766,-3.2758,-3.2881,-3.2872,-3.3283,-3.3334,-3.2946,-3.295,-3.2953,0,-3.2452,-3.2537,-3.2534,-3.2575,-3.2583,-3.265,-3.2685,-3.2623,-3.2663,-3.2688,-3.2755,-3.2818,-3.2865,-3.2984,-3.2965,-3.302,-3.2988,-3.3128,-3.2996,-3.3014,-3.2994,-3.2991,-3.3001,-3.3156,-3.3161,-3.3165,-3.3167,0,-3.2783,-3.2758,-3.281,-3.2858,-3.2902,-3.2936,-3.2963,-3.3002,-3.2939,-3.299,-3.306,-3.3097,-3.3171,-3.3236,-3.3283,-3.3287,-3.322,-3.3209,-3.324,-3.3263,-3.3278,-3.3274,-3.2842,-3.32,-3.3197,-3.3195,-3.3193,-3.3192,-3.3031,-3.3102,-3.3112,-3.3174,-3.3188,-3.3215,-3.328,-3.3263,-3.332,-3.3375,-3.3334,-3.342,-3.3434,-3.349,-3.3503,-3.357,-3.3514,-3.3559,-3.357,-3.3583,-3.3602,-3.3264,-3.3578,-3.3577,-3.3576,-3.3576,-3.3575,0,-3.3359,-3.336,-3.3418,-3.3458,-3.3509,-3.3437,-3.3463,-3.3511,-3.3586,-3.3605,-3.3653,-3.3736,-3.3799,-3.3784,-3.3841,-3.3898,-3.3868,-3.3915,-3.3912,-3.3915,-3.3647,-3.3616,-3.3939,-3.3939,-3.3938,-3.3938,-3.3938,-3.3938,-3.3536,-3.3655,-3.3631,-3.3756,-3.3755,-3.3837,-3.3859,-3.3885,-3.3899,-3.3996,-3.4047,-3.4036,-3.4042,-3.4099,-3.4154,-3.4148,-3.4175,-3.4235,-3.4218,-3.3969,-3.3933,-3.3899,-3.387,-3.424,-3.4241,-3.448,-3.4482,-3.4484]},{"header":{"parameterUnit":"m.s-1","parameterCategory":1,"la1":30.2991,"la2":30.254,"lo1":-89.0895,"lo2":-89.0444,"dy":0.0017,"dx":0.0017,"nx":28,"ny":28,"refTime":"2025-12-17T03:00:00:Z","depth":0,"parameterNumber":3,"parameterNumberName":"V-component_of_WINDS"},"data":[0,0,0,0,0,0,0,0,0,0,0,0,0,0,0,0,0,0,0,0,0,0,0,0,0,0,0,0,0,0,0,0,0,0,0,0,0,0,0,0,0,0,0,0,0,0,0,0,0,0,0,0,0,0,0,0,0,0,-1.3646,-1.3646,0,-1.3612,-1.3612,-1.3612,-1.3598,-1.3598,-1.3598,-1.3598,-1.3561,-1.356,-1.3559,0,0,0,0,0,0,0,0,0,0,0,0,0,-1.3696,-1.3695,-1.3646,-1.3646,-1.3645,-1.3612,-1.3612,-1.3611,-1.3598,-1.3598,-1.3598,-1.3598,-1.3561,-1.356,-1.3558,0,0,0,0,0,0,0,0,0,0,0,0,0,-1.3669,-1.3695,-1.3646,-1.3635,-1.3633,-1.3612,-1.3612,-1.3611,-1.3598,-1.3598,-1.3598,-1.3598,-1.3561,-1.356,-1.3558,-1.3546,0,0,-1.3553,-1.3553,0,0,0,0,0,0,0,0,-1.3671,-1.3667,-1.3637,-1.3635,-1.3634,-1.3609,-1.3616,-1.3589,-1.3598,-1.3611,-1.3598,-1.3598,-1.3577,-1.3574,-1.3567,-1.3544,-1.3542,-1.3553,-1.3552,-1.3552,-1.3551,0,0,0,0,0,0,0,-1.3673,-1.3669,-1.3633,-1.3636,-1.3635,-1.363,-1.3626,-1.3611,-1.3593,-1.361,-1.3609,-1.3605,-1.3576,-1.3569,-1.3566,-1.3542,-1.3553,-1.3552,-1.3551,-1.355,-1.3505,-1.3505,0,0,0,0,0,0,-1.3677,-1.367,-1.3634,-1.3632,-1.3653,-1.3629,-1.3625,-1.3617,-1.3594,-1.359,-1.3605,-1.3605,-1.3571,-1.3568,-1.3565,-1.3547,-1.3552,-1.355,-1.3549,-1.3505,-1.3505,-1.3505,0,0,0,0,0,0,-1.3678,-1.3674,-1.3635,-1.3651,-1.3645,-1.3628,-1.3619,-1.3616,-1.3609,-1.359,-1.3587,-1.3601,-1.3571,-1.3567,-1.355,-1.3546,-1.3549,-1.3548,-1.3505,-1.3505,-1.3505,-1.3513,0,0,0,0,0,0,-1.3679,-1.3674,-1.367,-1.3651,-1.3645,-1.3623,-1.3619,-1.3616,-1.3607,-1.3606,-1.3585,-1.3582,-1.3571,-1.3553,-1.3549,-1.3544,-1.3547,-1.3506,-1.3505,-1.3505,-1.3513,-1.3513,-1.3513,0,0,0,0,0,-1.3681,-1.3674,-1.367,-1.3666,-1.364,-1.3622,-1.3619,-1.3607,-1.3607,-1.3602,-1.3589,-1.3583,-1.3547,-1.3551,-1.3547,-1.3541,-1.3506,-1.3505,-1.3505,-1.3513,-1.3513,-1.3513,0,0,0,0,0,0,-1.3693,-1.3671,-1.3667,-1.3653,-1.364,-1.362,-1.3614,-1.3608,-1.3593,-1.3593,-1.3578,-1.3574,-1.3558,-1.3548,-1.3553,-1.3527,-1.3526,-1.3524,-1.3534,-1.3534,-1.3534,-1.3536,-1.3545,0,0,0,0,0,-1.3694,-1.3683,-1.3664,-1.3654,-1.3647,-1.3632,-1.3624,-1.3616,-1.3601,-1.3595,-1.3581,-1.3566,-1.3551,-1.3542,-1.3528,-1.3512,-1.3506,-1.3505,-1.3505,-1.3505,-1.3504,-1.3493,-1.3492,-1.3503,-1.3503,-1.3503,0,0,-1.3696,-1.3682,-1.3676,-1.3655,-1.3644,-1.3632,-1.3627,-1.3614,-1.3604,-1.3593,-1.3576,-1.3565,-1.3548,-1.3531,-1.3523,-1.3522,-1.35,-1.3505,-1.3505,-1.3504,-1.3493,-1.3492,-1.3491,-1.3502,-1.3502,-1.3503,0,0,-1.3692,-1.3682,-1.3672,-1.366,-1.3643,-1.3633,-1.363,-1.3611,-1.3604,-1.3587,-1.3578,-1.3565,-1.354,-1.3528,-1.3518,-1.3508,-1.3501,-1.3504,-1.3503,-1.3493,-1.3492,-1.3491,-1.3487,-1.3485,-1.3503,-1.3503,-1.3503,0,-1.3697,-1.3679,-1.3667,-1.3654,-1.3645,-1.3634,-1.3622,-1.3612,-1.3591,-1.3584,-1.3583,-1.3551,-1.3538,-1.3518,-1.3515,-1.3508,-1.3503,-1.3506,-1.3494,-1.3493,-1.3492,-1.3487,-1.3485,-1.3503,-1.3503,-1.3503,-1.3503,0,-1.3684,-1.3671,-1.3665,-1.3645,-1.3635,-1.3623,-1.3608,-1.3599,-1.3591,-1.358,-1.3562,-1.3546,-1.3528,-1.3522,-1.3515,-1.35,-1.35,-1.3497,-1.3495,-1.3491,-1.3486,-1.3485,-1.3504,-1.3503,-1.3503,-1.3503,0,0,-1.3688,-1.3661,-1.3659,-1.3649,-1.3629,-1.3618,-1.3605,-1.3587,-1.3579,-1.3564,-1.3552,-1.3531,-1.3527,-1.3516,-1.3507,-1.3498,-1.3489,-1.3495,-1.3494,-1.3494,-1.347,-1.3472,-1.3471,-1.3484,-1.3484,-1.3484,-1.3471,0,-1.3682,-1.3659,-1.3647,-1.3628,-1.3616,-1.3604,-1.3592,-1.3578,-1.3567,-1.3553,-1.3541,-1.3526,-1.3523,-1.3516,-1.3506,-1.3492,-1.3484,-1.3493,-1.3471,-1.3471,-1.3476,-1.3468,-1.3471,-1.346,-1.3469,-1.3469,-1.3469,0,-1.3672,-1.3657,-1.3638,-1.3617,-1.3612,-1.3601,-1.3583,-1.3571,-1.3554,-1.3546,-1.3533,-1.3524,-1.3508,-1.3508,-1.3484,-1.3491,-1.3481,-1.3472,-1.3472,-1.3469,-1.3469,-1.3464,-1.3456,-1.3454,-1.3466,-1.3466,-1.3467,0,-1.3675,-1.3651,-1.3636,-1.3628,-1.3604,-1.3597,-1.3587,-1.3569,-1.3559,-1.3543,-1.3535,-1.3517,-1.3507,-1.3493,-1.3478,-1.348,-1.3455,-1.3455,-1.3448,-1.3448,-1.3443,-1.3443,-1.3432,-1.3438,-1.3438,-1.3438,-1.3438,0,-1.3669,-1.3657,-1.3637,-1.3627,-1.3613,-1.3599,-1.3585,-1.3573,-1.3558,-1.3545,-1.3533,-1.3521,-1.3503,-1.3488,-1.3476,-1.3458,-1.3453,-1.3446,-1.3442,-1.3446,-1.3447,-1.3439,-1.3439,-1.3437,-1.3437,-1.3438,-1.3438,0,-1.3671,-1.3657,-1.3639,-1.3618,-1.3613,-1.3603,-1.3584,-1.3574,-1.3562,-1.3545,-1.354,-1.3521,-1.3503,-1.3487,-1.3462,-1.3454,-1.3435,-1.3431,-1.3441,-1.3439,-1.3432,-1.3433,-1.3415,-1.3412,-1.3421,-1.3421,-1.342,0,-1.3668,-1.3658,-1.3636,-1.3627,-1.3617,-1.3602,-1.3591,-1.3576,-1.3565,-1.3544,-1.3535,-1.3516,-1.35,-1.3471,-1.3454,-1.3434,-1.343,-1.3425,-1.3427,-1.343,-1.3428,-1.3429,-1.3427,-1.3425,-1.3425,-1.3425,-1.3425,0,-1.3663,-1.3657,-1.3642,-1.3625,-1.3612,-1.3597,-1.3582,-1.3575,-1.3557,-1.3545,-1.3526,-1.3513,-1.3488,-1.3468,-1.3447,-1.3435,-1.3426,-1.3424,-1.3422,-1.3425,-1.3431,-1.3426,-1.344,-1.3425,-1.3425,-1.3425,-1.3425,-1.3425,-1.3662,-1.3653,-1.3635,-1.3619,-1.3606,-1.3591,-1.358,-1.3567,-1.3551,-1.353,-1.3521,-1.3502,-1.3482,-1.3453,-1.344,-1.3424,-1.3422,-1.3418,-1.3417,-1.3416,-1.3416,-1.3434,-1.342,-1.342,-1.342,-1.342,-1.342,0,-1.3656,-1.3644,-1.3629,-1.3608,-1.3595,-1.3589,-1.3571,-1.356,-1.3543,-1.3526,-1.3511,-1.3488,-1.3468,-1.345,-1.3429,-1.3419,-1.3414,-1.3414,-1.3414,-1.3411,-1.3419,-1.3423,-1.3418,-1.3418,-1.3418,-1.3418,-1.3418,-1.3418,-1.3652,-1.3635,-1.3626,-1.3602,-1.3589,-1.357,-1.3561,-1.3547,-1.3533,-1.3509,-1.3493,-1.3481,-1.3462,-1.344,-1.3421,-1.3415,-1.3408,-1.3408,-1.3402,-1.341,-1.341,-1.3411,-1.3415,-1.3407,-1.3407,-1.3394,-1.3394,-1.3394]}]]